Showing default

TORO-3, 68481

Orbit data source: Space-Track

TORO-3, 68481 is a payload satellite owned by TASA (TW) in SSO that was launched on Mon, 30 Mar 2026 UTC via an FALCON 9 launch vehicle from the Air Force Western Test Range (AFWTR). Payload-class satellites include a variety of spacecraft equipped with specific instruments for various scientific and technological missions. These include communications satellites like Starlink; space stations such as the ISS; scientific satellites like the Hubble; Earth observation satellites from companies like Planet Labs, Umbra, and HawkEye 360; GPS; miniature CubeSats for education and research; and military/defense satellites.

Loading next visibility...
Identifier
68481, 2026-067BT
Orbit
SSO
Country
Flag of TWTW / TWN
Related business
Manufacturer
PYRAS
Mission
Operational Civil Imaging
Bus & Motor
CUBESAT 8U, Unknown motor
Mass
12 kg wet, 12 kg dry
Launch date (UTC)
2026-03-30 (6 months ago)
Launch vehicle
FALCON 9
Launch site
Air Force Western Test Range (AFWTR)
Object type
Payload
Rocket body
Debris
Shape & HBR
Box, 0.2 m
Radar Cross Section
0.100 m², Medium (>0.1 m² and < 1m²)

Expand to show TLE details & history
Last TLE update: 7 hours ago

TLE from 7 hours ago
0 TORO-3
1 68481U 26067BT  26263.11911795  .00001018  00000-0  10528-3 0  9990
2 68481  97.7784 220.2044 0003333  28.6133 331.5269 14.92260566 25883
Epoch: 2026-09-20T02:51Z
TLE epoch observation values (Epoch: 2026-09-20T02:51:31.790Z)
Latitude
0.00002°
Longitude
178.30406°
Altitude
591.888 km
Speed
7.565 km/s
True Right ascension
14h 40m 49s
True Declination
0° 00' 00"
Sunlit
Object was in daylight at epoch
Visualization orbit readout
Latitude
Unknown
Longitude
Unknown
Altitude
Unknown
Speed
Unknown
Apparent Right ascension
Unknown
Apparent Declination
Unknown
Sunlit
N/A
Visualization observer readout
Local Sidereal Time
03:11:15
Azimuth
Unknown
Elevation
Unknown
Doppler factor
Unknown
Orbital elements
Apogee altitude
590.23 km
Perigee altitude
585.586 km
Semi-major axis
6,966.045 km
Eccentricity
0.00033
Inclination
97.7784°
RAAN
220.2044°
Arg. of periapsis
28.6133°
True anomaly
331.50868°
Mean anomaly
331.5269°
Eccentric anomaly
331.51779°
Mean motion
3.73305 °/min
Orbital period
96.44 mins
BSTAR
0.00010528
Loading maneuver chart data...
Computing Atmospheric mass density...
Loading historical data...
Loading historical data...
Loading historical data...
Loading historical data...
Loading historical data...
Loading historical data...
Loading historical data...

Documentation

Showing up to 5 results
|